H1 CPF 1 NER 2018 10 22 9 7951 glonass102 H2 0606201 9102 29670 2018 10 22 0 0 0 2018 10 25 23 45 0 900 1 1 0 0 0 H9 10 0 58413 0.00000 0 8688849.039 22636779.422 8090806.119 10 0 58413 900.00000 0 9056661.759 23374146.510 5002049.911 10 0 58413 1800.00000 0 9359305.287 23716166.790 1816725.798 10 0 58413 2700.00000 0 9540708.526 23669901.145 -1403673.607 10 0 58413 3600.00000 0 9548379.653 23255332.812 -4596962.046 10 0 58413 4500.00000 0 9335834.668 22504443.582 -7701441.064 10 0 58413 5400.00000 0 8864786.050 21459810.537 -10657074.835 10 0 58413 6300.00000 0 8106999.673 20172780.421 -13406637.149 10 0 58413 7200.00000 0 7045741.469 18701296.299 -15896809.499 10 0 58413 8100.00000 0 5676751.675 17107465.519 -18079209.939 10 0 58413 9000.00000 0 4008703.490 15454968.841 -19911333.295 10 0 58413 9900.00000 0 2063124.002 13806417.635 -21357384.502 10 0 58413 10800.00000 0 -126222.928 12220768.595 -22388988.537 10 0 58413 11700.00000 0 -2514469.849 10750903.668 -22985762.303 10 0 58413 12600.00000 0 -5047251.430 9441476.688 -23135735.995 10 0 58413 13500.00000 0 -7662719.202 8327117.681 -22835614.048 10 0 58413 14400.00000 0 -10293884.215 7431071.433 -22090868.563 10 0 58413 15300.00000 0 -12871191.888 6764329.179 -20915661.122 10 0 58413 16200.00000 0 -15325222.789 6325291.768 -19332592.316 10 0 58413 17100.00000 0 -17589406.706 6099980.248 -17372281.694 10 0 58413 18000.00000 0 -19602635.748 6062786.485 -15072784.611 10 0 58413 18900.00000 0 -21311665.624 6177733.013 -12478856.105 10 0 58413 19800.00000 0 -22673202.542 6400188.985 -9641075.544 10 0 58413 20700.00000 0 -23655585.962 6678968.954 -6614849.384 10 0 58413 21600.00000 0 -24239994.651 6958723.954 -3459312.416 10 0 58413 22500.00000 0 -24421123.916 7182521.250 -236150.625 10 0 58413 23400.00000 0 -24207304.874 7294500.469 2991629.081 10 0 58413 24300.00000 0 -23620061.108 7242490.383 6160955.633 10 0 58413 25200.00000 0 -22693122.681 6980472.284 9209949.848 10 0 58413 26100.00000 0 -21470941.196 6470782.958 12079152.596 10 0 58413 27000.00000 0 -20006771.247 5685961.917 14712698.987 10 0 58413 27900.00000 0 -18360402.047 4610163.564 17059414.202 10 0 58413 28800.00000 0 -16595637.642 3240074.361 19073808.740 10 0 58413 29700.00000 0 -14777634.104 1585296.757 20716953.829 10 0 58413 30600.00000 0 -12970207.172 -331815.156 21957220.839 10 0 58413 31500.00000 0 -11233224.007 -2476859.864 22770871.865 10 0 58413 32400.00000 0 -9620187.886 -4804601.411 23142492.168 10 0 58413 33300.00000 0 -8176115.433 -7260639.050 23065258.527 10 0 58413 34200.00000 0 -6935792.795 -9783462.822 22541040.848 10 0 58413 35100.00000 0 -5922480.513 -12306809.047 21580337.531 10 0 58413 36000.00000 0 -5147117.727 -14762218.079 20202047.958 10 0 58413 36900.00000 0 -4608055.488 -17081688.983 18433088.210 10 0 58413 37800.00000 0 -4291327.052 -19200322.564 16307858.577 10 0 58413 38700.00000 0 -4171441.137 -21058845.228 13867573.648 10 0 58413 39600.00000 0 -4212663.021 -22605911.242 11159467.915 10 0 58413 40500.00000 0 -4370728.675 -23800090.364 8235891.620 10 0 58413 41400.00000 0 -4594919.745 -24611460.595 5153313.219 10 0 58413 42300.00000 0 -4830412.801 -25022741.737 1971246.418 10 0 58413 43200.00000 0 -5020805.160 -25029924.037 -1248879.212 10 0 58413 44100.00000 0 -5110712.428 -24642366.470 -4444883.950 10 0 58413 45000.00000 0 -5048329.959 -23882360.558 -7555019.157 10 0 58413 45900.00000 0 -4787851.567 -22784177.262 -10519142.897 10 0 58413 46800.00000 0 -4291644.462 -21392635.435 -13279868.714 10 0 58413 47700.00000 0 -3532088.893 -19761249.831 -15783666.500 10 0 58413 48600.00000 0 -2493004.356 -17950034.006 -17981895.078 10 0 58413 49500.00000 0 -1170600.696 -16023047.738 -19831747.052 10 0 58413 50400.00000 0 426088.286 -14045789.531 -21297087.623 10 0 58413 51300.00000 0 2275310.168 -12082541.537 -22349170.765 10 0 58413 52200.00000 0 4343237.483 -10193776.731 -22967218.041 10 0 58413 53100.00000 0 6585126.424 -8433736.354 -23138847.444 10 0 58413 54000.00000 0 8946946.040 -6848279.081 -22860342.280 10 0 58413 54900.00000 0 11367413.145 -5473092.737 -22136752.788 10 0 58413 55800.00000 0 13780350.484 -4332344.821 -20981826.301 10 0 58413 56700.00000 0 16117271.314 -3437829.983 -19417765.045 10 0 58413 57600.00000 0 18310083.036 -2788651.907 -17474814.155 10 0 58413 58500.00000 0 20293796.352 -2371454.460 -15190686.176 10 0 58413 59400.00000 0 22009125.267 -2161193.338 -12609832.021 10 0 58413 60300.00000 0 23404867.036 -2122415.952 -9782571.947 10 0 58413 61200.00000 0 24439959.835 -2210995.047 -6764103.754 10 0 58413 62100.00000 0 25085129.421 -2376241.306 -3613408.454 10 0 58413 63000.00000 0 25324053.613 -2563303.360 -392076.362 10 0 58413 63900.00000 0 25153994.209 -2715750.711 2836921.141 10 0 58413 64800.00000 0 24585869.370 -2778226.917 6010487.658 10 0 58413 65700.00000 0 23643763.922 -2699057.298 9066658.448 10 0 58413 66600.00000 0 22363899.700 -2432697.698 11945830.498 10 0 58413 67500.00000 0 20793111.527 -1941918.129 14591939.892 10 0 58413 68400.00000 0 18986895.666 -1199627.220 16953561.957 10 0 58413 69300.00000 0 17007115.671 -190259.584 18984911.860 10 0 58413 70200.00000 0 14919464.577 1089332.381 20646726.247 10 0 58413 71100.00000 0 12790791.882 2629519.017 21907009.584 10 0 58413 72000.00000 0 10686408.466 4408080.004 22741632.216 10 0 58413 72900.00000 0 8667482.315 6390927.543 23134770.630 10 0 58413 73800.00000 0 6788632.866 8533334.317 23079183.831 10 0 58413 74700.00000 0 5095822.481 10781613.438 22576323.018 10 0 58413 75600.00000 0 3624630.155 13075179.534 21636274.913 10 0 58413 76500.00000 0 2398976.046 15348904.893 20277541.967 10 0 58413 77400.00000 0 1430346.428 17535673.021 18526665.447 10 0 58413 78300.00000 0 717547.789 19569024.652 16417699.830 10 0 58413 79200.00000 0 246997.114 21385787.921 13991549.195 10 0 58413 80100.00000 0 -6466.321 22928585.443 11295178.464 10 0 58413 81000.00000 0 -78283.436 24148116.385 8380714.129 10 0 58413 81900.00000 0 -12447.428 25005120.860 5304450.764 10 0 58413 82800.00000 0 140582.005 25471946.796 2125781.211 10 0 58413 83700.00000 0 326235.294 25533655.540 -1093930.546 10 0 58413 84600.00000 0 488362.518 25188620.995 -4292513.852 10 0 58413 85500.00000 0 571830.819 24448597.418 -7408172.329 10 0 58414 0.00000 0 525081.775 23338252.563 -10380660.183 10 0 58414 900.00000 0 302541.737 21894184.057 -13152432.964 10 0 58414 1800.00000 0 -133214.631 20163459.047 -15669750.839 10 0 58414 2700.00000 0 -809640.887 18201734.742 -17883715.120 10 0 58414 3600.00000 0 -1742811.067 16071036.874 -19751217.712 10 0 58414 4500.00000 0 -2936490.173 13837285.963 -21235785.409 10 0 58414 5400.00000 0 -4381724.021 11567672.721 -22308302.332 10 0 58414 6300.00000 0 -6056969.211 9327990.431 -22947595.643 10 0 58414 7200.00000 0 -7928761.373 7180034.710 -23140871.857 10 0 58414 8100.00000 0 -9952897.540 5179178.841 -22883993.580 10 0 58414 9000.00000 0 -12076086.697 3372226.245 -22181589.285 10 0 58414 9900.00000 0 -14238002.334 1795630.866 -21046991.757 10 0 58414 10800.00000 0 -16373653.325 474161.210 -19502004.144 10 0 58414 11700.00000 0 -18415975.054 -579934.461 -17576496.036 10 0 58414 12600.00000 0 -20298532.311 -1367225.241 -15307835.660 10 0 58414 13500.00000 0 -21958219.815 -1900843.423 -12740167.959 10 0 58414 14400.00000 0 -23337845.317 -2205689.221 -9923551.995 10 0 58414 15300.00000 0 -24388484.457 -2317128.093 -6912974.631 10 0 58414 16200.00000 0 -25071505.862 -2279236.748 -3767260.663 10 0 58414 17100.00000 0 -25360178.892 -2142673.937 -547902.201 10 0 58414 18000.00000 0 -25240794.379 -1962268.717 2682167.540 10 0 58414 18900.00000 0 -24713250.001 -1794431.534 5859829.559 10 0 58414 19800.00000 0 -23791075.408 -1694501.133 8923036.328 10 0 58414 20700.00000 0 -22500896.761 -1714142.920 11812043.733 10 0 58414 21600.00000 0 -20881364.846 -1898911.764 14470591.538 10 0 58414 22500.00000 0 -18981594.113 -2286084.518 16847007.781 10 0 58414 23400.00000 0 -16859180.856 -2902855.088 18895214.613 10 0 58414 24300.00000 0 -14577886.317 -3764968.619 20575616.081 10 0 58414 25200.00000 0 -12205083.966 -4875851.878 21855851.322 10 0 58414 26100.00000 0 -9809079.386 -6226275.185 22711400.048 10 0 58414 27000.00000 0 -7456415.314 -7794558.499 23126030.618 10 0 58414 27900.00000 0 -5209273.833 -9547311.215 23092084.468 10 0 58414 28800.00000 0 -3123082.597 -11440673.039 22610593.877 10 0 58414 29700.00000 0 -1244422.343 -13422002.772 21691233.305 10 0 58414 30600.00000 0 390680.347 -15431943.853 20352107.381 10 0 58414 31500.00000 0 1758007.443 -17406780.428 18619381.376 10 0 58414 32400.00000 0 2845902.563 -19280986.438 16526762.526 10 0 58414 33300.00000 0 3655494.872 -20989862.874 14114842.753 10 0 58414 34200.00000 0 4200387.466 -22472155.085 11430315.562 10 0 58414 35100.00000 0 4505825.673 -23672543.216 8525081.672 10 0 58414 36000.00000 0 4607381.603 -24543904.151 5455259.614 10 0 58414 36900.00000 0 4549210.738 -25049252.616 2280119.115 10 0 58414 37800.00000 0 4381953.592 -25163282.084 -939043.765 10 0 58414 38700.00000 0 4160369.825 -24873442.185 -4140069.806 10 0 58414 39600.00000 0 3940803.036 -24180507.946 -7261117.309 10 0 58414 40500.00000 0 3778581.523 -23098616.677 -10241839.170 10 0 58414 41400.00000 0 3725463.120 -21654769.748 -13024535.154 10 0 58414 42300.00000 0 3827230.738 -19887818.264 -15555258.222 10 0 58414 43200.00000 0 4121539.486 -17846972.649 -17784854.520 10 0 58414 44100.00000 0 4636106.383 -15589895.703 -19669917.426 10 0 58414 45000.00000 0 5387320.047 -13180456.008 -21173637.273 10 0 58414 45900.00000 0 6379330.862 -10686232.872 -22266529.969 10 0 58414 46800.00000 0 7603662.688 -8175874.635 -22927029.565 10 0 58414 47700.00000 0 9039365.689 -5716418.952 -23141931.985 10 0 58414 48600.00000 0 10653707.487 -3370685.862 -22906679.638 10 0 58414 49500.00000 0 12403377.255 -1194852.142 -22225479.352 10 0 58414 50400.00000 0 14236155.391 763691.248 -21111249.118 10 0 58414 51300.00000 0 16092981.343 2468108.112 -19585392.413 10 0 58414 52200.00000 0 17910334.515 3893437.037 -17677402.337 10 0 58414 53100.00000 0 19622828.942 5027405.597 -15424301.481 10 0 58414 54000.00000 0 21165912.352 5870703.397 -12869927.130 10 0 58414 54900.00000 0 22478554.835 6436701.605 -10064075.050 10 0 58414 55800.00000 0 23505811.861 6750630.613 -7061518.690 10 0 58414 56700.00000 0 24201151.199 6848251.206 -3920923.805 10 0 58414 57600.00000 0 24528443.072 6774076.885 -703681.203 10 0 58414 58500.00000 0 24463527.256 6579224.841 2527317.326 10 0 58414 59400.00000 0 23995289.273 6318989.492 5708933.489 10 0 58414 60300.00000 0 23126199.338 6050244.655 8779040.204 10 0 58414 61200.00000 0 21872291.310 5828787.715 11677755.318 10 0 58414 62100.00000 0 20262583.462 5706741.310 14348625.099 10 0 58414 63000.00000 0 18337967.082 5730124.986 16739732.793 10 0 58414 63900.00000 0 16149611.868 5936701.133 18804709.697 10 0 58414 64800.00000 0 13756957.430 6354186.934 20503629.042 10 0 58414 65700.00000 0 11225377.262 6998907.551 21803766.045 10 0 58414 66600.00000 0 8623614.716 7874946.246 22680210.787 10 0 58414 67500.00000 0 6021099.042 8973825.577 23116324.091 10 0 58414 68400.00000 0 3485253.385 10274731.105 23104029.961 10 0 58414 69300.00000 0 1078906.004 11745266.254 22643941.443 10 0 58414 70200.00000 0 -1142089.575 13342704.984 21745319.964 10 0 58414 71100.00000 0 -3130929.286 15015688.666 20425871.104 10 0 58414 72000.00000 0 -4851545.128 16706295.618 18711382.518 10 0 58414 72900.00000 0 -6279837.207 18352396.999 16635212.231 10 0 58414 73800.00000 0 -7404403.594 19890201.566 14237637.771 10 0 58414 74700.00000 0 -8226740.862 21256884.385 11565078.801 10 0 58414 75600.00000 0 -8760909.799 22393191.655 8669207.730 10 0 58414 76500.00000 0 -9032682.282 23245914.850 5605964.444 10 0 58414 77400.00000 0 -9078206.222 23770132.812 2434492.945 10 0 58414 78300.00000 0 -8942244.882 23931129.785 -783981.232 10 0 58414 79200.00000 0 -8676064.105 23705910.424 -3987312.859 10 0 58414 80100.00000 0 -8335055.162 23084248.957 -7113617.381 10 0 58414 81000.00000 0 -7976191.883 22069228.414 -10102448.675 10 0 58414 81900.00000 0 -7655427.595 20677246.375 -12895953.013 10 0 58414 82800.00000 0 -7425140.140 18937485.229 -15439978.081 10 0 58414 83700.00000 0 -7331731.692 16890866.751 -17685116.603 10 0 58414 84600.00000 0 -7413484.149 14588531.788 -19587664.968 10 0 58414 85500.00000 0 -7698760.882 12089905.556 -21110478.356 10 0 58415 0.00000 0 -8204631.769 9460426.287 -22223705.523 10 0 58415 900.00000 0 -8935981.874 6769029.036 -22905388.278 10 0 58415 1800.00000 0 -9885142.771 4085487.681 -23141912.549 10 0 58415 2700.00000 0 -11032067.257 1477724.215 -22928300.837 10 0 58415 3600.00000 0 -12345041.381 -990803.589 -22268338.295 10 0 58415 4500.00000 0 -13781908.473 -3263526.683 -21174527.718 10 0 58415 5400.00000 0 -15291755.912 -5292899.919 -19667872.112 10 0 58415 6300.00000 0 -16816995.969 -7042157.430 -17777486.893 10 0 58415 7200.00000 0 -18295754.245 -8486613.274 -15540047.458 10 0 58415 8100.00000 0 -19664465.315 -9614451.470 -12999081.562 10 0 58415 9000.00000 0 -20860565.336 -10426971.139 -10204119.541 10 0 58415 9900.00000 0 -21825166.325 -10938275.817 -7209719.105 10 0 58415 10800.00000 0 -22505596.905 -11174420.284 -4074384.496 10 0 58415 11700.00000 0 -22857699.584 -11172051.950 -859402.629 10 0 58415 12600.00000 0 -22847784.889 -10976606.080 2372378.817 10 0 58415 13500.00000 0 -22454157.577 -10640133.864 5557805.017 10 0 58415 14400.00000 0 -21668148.913 -10218858.396 8634672.145 10 0 58415 15300.00000 0 -20494610.698 -9770565.359 11542962.827 10 0 58415 16200.00000 0 -18951850.460 -9351942.112 14226032.559 10 0 58415 17100.00000 0 -17071011.521 -9015980.535 16631722.375 10 0 58415 18000.00000 0 -14894925.790 -8809555.457 18713375.036 10 0 58415 18900.00000 0 -12476489.512 -8771282.096 20430734.929 10 0 58415 19800.00000 0 -9876632.150 -8929743.044 21750714.897 10 0 58415 20700.00000 0 -7161965.304 -9302158.702 22648016.469 10 0 58415 21600.00000 0 -4402211.052 -9893555.606 23105593.524 10 0 58415 22500.00000 0 -1667517.375 -10696465.518 23114952.760 10 0 58415 23400.00000 0 974227.996 -11691165.659 22676287.689 10 0 58415 24300.00000 0 3459975.089 -12846447.841 21798446.017 10 0 58415 25200.00000 0 5733875.777 -14120882.489 20498733.265 10 0 58415 26100.00000 0 7749339.147 -15464523.407 18802558.169 10 0 58415 27000.00000 0 9470696.233 -16820981.445 16742927.985 10 0 58415 27900.00000 0 10874408.534 -18129780.601 14359804.044 10 0 58415 28800.00000 0 11949773.393 -19328898.859 11699330.134 10 0 58415 29700.00000 0 12699099.959 -20357388.995 8812948.096 10 0 58415 30600.00000 0 13137350.823 -21157971.490 5756416.731 10 0 58415 31500.00000 0 13291265.900 -21679492.917 2588751.719 10 0 58415 32400.00000 0 13198006.081 -21879148.700 -628894.595 10 0 58415 33300.00000 0 12903373.489 -21724378.505 -3834393.681 10 0 58415 34200.00000 0 12459682.304 -21194355.704 -6965820.791 10 0 58415 35100.00000 0 11923368.412 -20281008.585 -9962633.371 10 0 58415 36000.00000 0 11352436.857 -18989529.791 -12766826.679 10 0 58415 36900.00000 0 10803852.949 -17338351.115 -15324045.452 10 0 58415 37800.00000 0 10330985.538 -15358582.430 -17584631.136 10 0 58415 38700.00000 0 9981209.215 -13092935.309 -19504585.030 10 0 58415 39600.00000 0 9793766.207 -10594173.129 -21046428.783 10 0 58415 40500.00000 0 9797978.484 -7923149.026 -22179945.311 10 0 58415 41400.00000 0 10011886.703 -5146510.297 -22882785.041 10 0 58415 42300.00000 0 10441375.297 -2334162.290 -23140924.410 10 0 58415 43200.00000 0 11079823.154 443404.737 -22948966.143 10 0 58415 44100.00000 0 11908297.578 3117815.795 -22310273.443 10 0 58415 45000.00000 0 12896286.390 5625426.296 -21236933.271 10 0 58415 45900.00000 0 14002940.145 7909742.900 -19749547.207 10 0 58415 46800.00000 0 15178774.402 9923548.088 -17876851.709 10 0 58415 47700.00000 0 16367761.814 11630638.264 -15655173.410 10 0 58415 48600.00000 0 17509726.290 13007101.107 -13127728.654 10 0 58415 49500.00000 0 18542937.805 14042077.223 -10343780.173 10 0 58415 50400.00000 0 19406796.801 14737973.077 -7357667.467 10 0 58415 51300.00000 0 20044492.625 15110115.928 -4227730.535 10 0 58415 52200.00000 0 20405520.957 15185865.885 -1015149.483 10 0 58415 53100.00000 0 20447950.961 15003223.876 2217275.159 10 0 58415 54000.00000 0 20140343.680 14608996.647 5406375.073 10 0 58415 54900.00000 0 19463238.481 14056599.218 8489872.661 10 0 58415 55800.00000 0 18410143.379 13403591.013 11407618.108 10 0 58415 56700.00000 0 16987986.970 12709053.182 14102778.715 10 0 58415 57600.00000 0 15217013.321 12030921.004 16522955.589 10 0 58415 58500.00000 0 13130125.388 11423386.502 18621204.938 10 0 58415 59400.00000 0 10771706.283 10934482.448 20356943.972 10 0 58415 60300.00000 0 8195969.692 10603950.190 21696724.479 10 0 58415 61200.00000 0 5464910.397 10461480.668 22614860.395 10 0 58415 62100.00000 0 2645941.963 10525401.246 23093899.215 10 0 58415 63000.00000 0 -190679.190 10801861.500 23124930.473 10 0 58415 63900.00000 0 -2974535.985 11284549.647 22707727.819 10 0 58415 64800.00000 0 -5637728.676 11954948.974 21850724.449 10 0 58415 65700.00000 0 -8117439.170 12783121.140 20570824.553 10 0 58415 66600.00000 0 -10358277.707 13728981.651 18893056.244 10 0 58415 67500.00000 0 -12314317.622 14744012.873 16850073.911 10 0 58415 68400.00000 0 -13950737.072 15773342.390 14481520.292 10 0 58415 69300.00000 0 -15245002.837 16758099.966 11833260.697 10 0 58415 70200.00000 0 -16187550.120 17637955.319 8956503.695 10 0 58415 71100.00000 0 -16781932.686 18353731.883 5906824.274 10 0 58415 72000.00000 0 -17044438.977 18849988.686 2743107.102 10 0 58415 72900.00000 0 -17003191.470 19077463.886 -473571.290 10 0 58415 73800.00000 0 -16696767.324 18995278.971 -3681101.592 10 0 58415 74700.00000 0 -16172397.699 18572812.237 -6817521.284 10 0 58415 75600.00000 0 -15483820.285 17791163.344 -9822193.673 10 0 58415 76500.00000 0 -14688873.776 16644147.102 -12636965.134 10 0 58415 77400.00000 0 -13846933.703 15138773.634 -15207279.391 10 0 58415 78300.00000 0 -13016295.855 13295192.707 -17483228.328 10 0 58415 79200.00000 0 -12251616.013 11146101.792 -19420519.615 10 0 58415 80100.00000 0 -11601512.901 8735639.365 -20981342.548 10 0 58415 81000.00000 0 -11106435.051 6117806.133 -22135115.090 10 0 58415 81900.00000 0 -10796881.898 3354476.488 -22859096.917 10 0 58415 82800.00000 0 -10692055.309 513079.957 -23138855.295 10 0 58415 83700.00000 0 -10799000.235 -2335953.445 -22968573.165 10 0 58415 84600.00000 0 -11112273.112 -5121879.525 -22351191.452 10 0 58415 85500.00000 0 -11614154.643 -7776346.934 -21298380.631 10 0 58416 0.00000 0 -12275400.584 -10236012.339 -19830339.882 10 0 58416 900.00000 0 -13056501.339 -12444953.969 -17975425.280 10 0 58416 1800.00000 0 -13909398.434 -14356781.895 -15769613.102 10 0 58416 2700.00000 0 -14779586.905 -15936354.146 -13255806.371 10 0 58416 3600.00000 0 -15608514.071 -17161026.633 -10482998.135 10 0 58416 4500.00000 0 -16336172.548 -18021381.718 -7505307.459 10 0 58416 5400.00000 0 -16903775.767 -18521404.615 -4380907.793 10 0 58416 6300.00000 0 -17256400.243 -18678099.931 -1170870.050 10 0 58416 7200.00000 0 -17345479.877 -18520565.297 2062054.814 10 0 58416 8100.00000 0 -17131043.818 -18088562.918 5254687.479 10 0 58416 9000.00000 0 -16583600.661 -17430651.851 8344679.097 10 0 58416 9900.00000 0 -15685587.399 -16601962.944 11271749.967 10 0 58416 10800.00000 0 -14432320.814 -15661713.742 13978881.700 10 0 58416 11700.00000 0 -12832410.921 -14670571.493 16413437.888 10 0 58416 12600.00000 0 -10907619.688 -13687978.254 18528190.407 10 0 58416 13500.00000 0 -8692172.208 -12769552.895 20282231.240 10 0 58416 14400.00000 0 -6231550.890 -11964680.431 21641752.723 10 0 58416 15300.00000 0 -3580824.958 -11314390.081 22580682.404 10 0 58416 16200.00000 0 -802586.646 -10849610.210 23081162.178 10 0 58416 17100.00000 0 2035418.826 -10589871.469 23133864.762 10 0 58416 18000.00000 0 4862870.291 -10542510.037 22738143.888 10 0 58416 18900.00000 0 7609548.061 -10702401.505 21902017.804 10 0 58416 19800.00000 0 10208001.799 -11052233.719 20641988.596 10 0 58416 20700.00000 0 12596100.059 -11563304.634 18982702.649 10 0 58416 21600.00000 0 14719358.425 -12196809.829 16956460.094 10 0 58416 22500.00000 0 16532952.668 -12905564.508 14602583.389 10 0 58416 23400.00000 0 18003336.453 -13636087.415 11966657.384 10 0 58416 24300.00000 0 19109399.498 -14330959.645 9099655.095 10 0 58416 25200.00000 0 19843120.701 -14931360.406 6056965.134 10 0 58416 26100.00000 0 20209691.150 -15379674.770 2897338.365 10 0 58416 27000.00000 0 20227103.344 -15622065.592 -318227.470 10 0 58416 27900.00000 0 19925224.483 -15610903.181 -3527645.326 10 0 58416 28800.00000 0 19344392.425 -15306951.953 -6668917.949 10 0 58416 29700.00000 0 18533592.380 -14681222.931 -9681317.439 10 0 58416 30600.00000 0 17548289.382 -13716414.293 -12506544.045 10 0 58416 31500.00000 0 16448005.837 -12407878.679 -15089843.005 10 0 58416 32400.00000 0 15293744.042 -10764074.928 -17381058.885 10 0 58416 33300.00000 0 14145360.267 -8806482.816 -19335607.668 10 0 58416 34200.00000 0 13058999.416 -6568981.212 -20915347.899 10 0 58416 35100.00000 0 12084697.325 -4096712.050 -22089333.820 10 0 58416 36000.00000 0 11264251.336 -1444473.793 -22834435.189 10 0 58416 36900.00000 0 10629449.325 1325292.130 -23135810.508 10 0 58416 37800.00000 0 10200732.907 4144841.142 -22987222.915 10 0 58416 38700.00000 0 9986352.921 6943696.623 -22391190.632 10 0 58416 39600.00000 0 9982054.949 9651346.730 -21358966.814 10 0 58416 40500.00000 0 10171310.434 12199955.254 -19910346.963 10 0 58416 41400.00000 0 10526085.815 14526973.286 -18073305.414 10 0 58416 42300.00000 0 11008118.920 16577541.566 -15883466.137 10 0 58416 43200.00000 0 11570649.740 18306581.575 -13383416.716 10 0 58416 44100.00000 0 12160532.598 19680486.020 -10621878.083 10 0 58416 45000.00000 0 12720639.564 20678335.973 -7652746.195 10 0 58416 45900.00000 0 13192451.762 21292592.232 -4534025.053 10 0 58416 46800.00000 0 13518726.393 21529231.058 -1326673.346 10 0 58416 47700.00000 0 13646123.665 21407318.723 1906610.660 10 0 58416 48600.00000 0 13527679.305 20958043.861 5102639.721 10 0 58416 49500.00000 0 13125015.075 20223250.419 8198996.698 10 0 58416 50400.00000 0 12410191.399 19253535.746 11135274.765 10 0 58416 51300.00000 0 11367122.073 18105997.244 13854272.344 10 0 58416 52200.00000 0 9992490.507 16841725.787 16303117.716 10 0 58416 53100.00000 0 8296128.939 15523154.539 18434300.311 10 0 58416 54000.00000 0 6300845.423 14211377.190 20206588.433 10 0 58416 54900.00000 0 4041707.222 12963549.870 21585816.176 10 0 58416 55800.00000 0 1564812.275 11830486.389 22545525.542 10 0 58416 56700.00000 0 -1074398.259 10854547.113 23067453.270 10 0 58416 57600.00000 0 -3813214.704 10067908.337 23141855.292 10 0 58416 58500.00000 0 -6584033.523 9491282.278 22767664.997 10 0 58416 59400.00000 0 -9316933.160 9133138.292 21952484.781 10 0 58416 60300.00000 0 -11942344.801 8989454.768 20712413.237 10 0 58416 61200.00000 0 -14393708.617 9044009.044 19071713.173 10 0 58416 62100.00000 0 -16610007.466 9269190.594 17062328.193 10 0 58416 63000.00000 0 -18538075.605 9627301.454 14723257.862 10 0 58416 63900.00000 0 -20134589.377 10072288.244 12099803.709 10 0 58416 64800.00000 0 -21367660.177 10551832.768 9242700.206 10 0 58416 65700.00000 0 -22217966.125 11009713.939 6207146.572 10 0 58416 66600.00000 0 -22679377.522 11388342.822 3051756.892 10 0 58416 67500.00000 0 -22759051.663 11631365.776 -162552.731 10 0 58416 68400.00000 0 -22476993.908 11686227.770 -3373720.224 10 0 58416 69300.00000 0 -21865103.455 11506589.573 -6519716.154 10 0 58416 70200.00000 0 -20965743.122 11054498.159 -9539723.787 10 0 58416 71100.00000 0 -19829891.767 10302219.497 -12375299.431 10 0 58416 72000.00000 0 -18514955.096 9233656.304 -14971491.802 10 0 58416 72900.00000 0 -17082324.706 7845289.982 -17277899.848 10 0 58416 73800.00000 0 -15594785.761 6146605.061 -19249649.251 10 0 58416 74700.00000 0 -14113880.388 4159975.516 -20848268.830 10 0 58416 75600.00000 0 -12697336.095 1920014.214 -22042449.753 10 0 58416 76500.00000 0 -11396666.397 -527591.123 -22808672.099 10 0 58416 77400.00000 0 -10255044.366 -3127710.604 -23131685.449 10 0 58416 78300.00000 0 -9305539.022 -5817808.957 -23004832.606 10 0 58416 79200.00000 0 -8569789.901 -8530304.465 -22430208.177 10 0 58416 80100.00000 0 -8057177.267 -11195153.850 -21418646.753 10 0 58416 81000.00000 0 -7764524.849 -13742556.551 -19989538.649 10 0 58416 81900.00000 0 -7676349.537 -16105665.894 -18170474.556 10 0 58416 82800.00000 0 -7765649.217 -18223193.170 -15996724.159 10 0 58416 83700.00000 0 -7995196.598 -20041794.412 -13510557.427 10 0 58416 84600.00000 0 -8319284.690 -21518138.083 -10760420.928 10 0 58416 85500.00000 0 -8685849.659 -22620564.884 -7799985.246 99